Richmond (NSW), Australia

6:57 PM AEST on June 26, 2017 (GMT +1000)
Richmond (Military)

Weather History for YSRI - March, 2014

Change the Weather History Date:

Tuesday, March 25, 2014

  Actual Average Record
Temperature  
Mean Temperature 68 °F -  
Max Temperature 78 °F 76 °F - ()
Min Temperature 57 °F 55 °F - ()
Cooling Degree Days 2    
Growing Degree Days 18 (Base 50)    
Moisture  
Dew Point 62 °F    
Average Humidity 89    
Maximum Humidity 100    
Minimum Humidity 57    
Precipitation  
Precipitation 0.00 in 0.11 in - ()
Sea Level Pressure  
Sea Level Pressure 30.08 in    
Wind  
Wind Speed 1 mph ()    
Max Wind Speed 9 mph    
Max Gust Speed -    
Visibility 5.8 miles    
Events      
T = Trace of Precipitation, MM = Missing Value Source: Averaged Metar Reports

Daily Weather History Graph

Daily Weather History Graph

Search for Another Location

Airport or City:

Trip Planner

Search our weather history database for the weather conditions in past years. The results will help you decide how hot, cold, wet, or windy it might be!

Date:

Astronomy

Mar. 25, 2014 Rise Set
Actual Time 7:03 AM AEDT 7:02 PM AEDT
Civil Twilight 6:38 AM AEDT 7:26 PM AEDT
Nautical Twilight 6:09 AM AEDT 7:55 PM AEDT
Astronomical Twilight 5:40 AM AEDT 8:24 PM AEDT
Moon 12:43 AM AEDT (3/25) 2:51 PM AEDT (3/25)
Length of Visible Light 12h 48m
Length of Day
11h 58m
Last Quarter, 39% of the Moon is Illuminated
Mar 25
Last Quarter
Mar 31
New
Apr 7
First Quarter
Apr 15
Full
Apr 22
Last Quarter

Hourly Weather History & Observations

Time (AEDT) Temp. Dew Point Humidity Pressure Visibility Wind Dir Wind Speed Gust Speed Precip Events Conditions
12:00 AM 62.6 °F 62.6 °F 100% 30.04 in 6.2 mi Calm Calm - N/A   Overcast
12:30 AM 64.4 °F 62.6 °F 94% 30.04 in 6.2 mi Calm Calm - N/A   Mostly Cloudy
1:00 AM 60.8 °F 60.8 °F 100% 30.04 in 6.2 mi NNW 4.6 mph - N/A   Scattered Clouds
1:30 AM 60.8 °F 60.8 °F 100% 30.04 in 6.2 mi NW 2.3 mph - N/A   Unknown
2:00 AM 60.8 °F 60.8 °F 100% 30.04 in 6.2 mi Calm Calm - N/A   Unknown
2:27 AM 60.8 °F 60.8 °F 100% 30.04 in 6.2 mi Calm Calm - N/A   Mostly Cloudy
2:30 AM 59.0 °F 59.0 °F 100% 30.04 in 6.2 mi Calm Calm - N/A   Mostly Cloudy
3:00 AM 59.0 °F 59.0 °F 100% 30.04 in 6.2 mi Calm Calm - N/A   Mostly Cloudy
3:15 AM 59.0 °F 59.0 °F 100% 30.04 in 6.2 mi Calm Calm - N/A   Scattered Clouds
3:18 AM 59.0 °F 59.0 °F 100% 30.04 in 6.2 mi Calm Calm - N/A   Mostly Cloudy
3:30 AM 59.0 °F 59.0 °F 100% 30.04 in 4.3 mi Calm Calm - N/A   Mostly Cloudy
3:31 AM 59.0 °F 59.0 °F 100% 30.04 in 3.7 mi Calm Calm - N/A   Mostly Cloudy
3:54 AM 59.0 °F 59.0 °F 100% 30.04 in 5.6 mi Calm Calm - N/A   Scattered Clouds
4:00 AM 59.0 °F 59.0 °F 100% 30.04 in 6.2 mi NW 2.3 mph - N/A   Scattered Clouds
4:02 AM 59.0 °F 59.0 °F 100% 30.04 in 5.6 mi WNW 2.3 mph - N/A   Unknown
4:18 AM 59.0 °F 59.0 °F 100% 30.04 in 6.2 mi Calm Calm - N/A   Mostly Cloudy
4:26 AM 59.0 °F 59.0 °F 100% 30.04 in 3.7 mi Calm Calm - N/A   Scattered Clouds
4:30 AM 59.0 °F 59.0 °F 100% 30.04 in - Calm Calm - N/A   Scattered Clouds
4:32 AM 59.0 °F 59.0 °F 100% 30.04 in 3.1 mi Calm Calm - N/A   Scattered Clouds
4:56 AM 59.0 °F 59.0 °F 100% 30.04 in 6.2 mi Calm Calm - N/A   Scattered Clouds
5:00 AM 59.0 °F 59.0 °F 100% 30.04 in 6.2 mi Calm Calm - N/A   Scattered Clouds
5:03 AM 57.2 °F 57.2 °F 100% 30.04 in - Calm Calm - N/A   Scattered Clouds
5:23 AM 57.2 °F 57.2 °F 100% 30.04 in 6.2 mi Calm Calm - N/A   Unknown
5:26 AM 57.2 °F 57.2 °F 100% 30.04 in 3.7 mi Calm Calm - N/A   Unknown
5:30 AM 57.2 °F 57.2 °F 100% 30.04 in 1.7 mi Calm Calm - N/A   Unknown
6:00 AM 57.2 °F 57.2 °F 100% 30.04 in 3.1 mi Calm Calm - N/A   Scattered Clouds
6:11 AM 59.0 °F 59.0 °F 100% 30.06 in 6.2 mi Calm Calm - N/A   Unknown
6:30 AM 57.2 °F 57.2 °F 100% 30.06 in 6.2 mi Calm Calm - N/A   Scattered Clouds
7:00 AM 57.2 °F 57.2 °F 100% 30.06 in 6.2 mi Calm Calm - N/A   Unknown
7:30 AM 57.2 °F 57.2 °F 100% 30.09 in 6.2 mi Calm Calm - N/A   Unknown
8:00 AM 59.0 °F 59.0 °F 100% 30.09 in 6.2 mi Calm Calm - N/A   Unknown
8:30 AM 60.8 °F 60.8 °F 100% 30.09 in 6.2 mi Calm Calm - N/A   Unknown
9:00 AM 62.6 °F 62.6 °F 100% 30.12 in 6.2 mi NE 5.8 mph - N/A   Unknown
9:30 AM 64.4 °F 62.6 °F 94% 30.12 in 6.2 mi NNE 5.8 mph - N/A   Unknown
10:00 AM 68.0 °F 62.6 °F 83% 30.12 in 6.2 mi Calm Calm - N/A   Unknown
10:30 AM 69.8 °F 62.6 °F 78% 30.12 in 6.2 mi NE 1.2 mph - N/A   Unknown
11:00 AM 71.6 °F 62.6 °F 73% 30.12 in 6.2 mi SSE 2.3 mph - N/A   Unknown
11:30 AM 73.4 °F 64.4 °F 73% 30.12 in 6.2 mi East 2.3 mph - N/A   Unknown
12:00 PM 75.2 °F 64.4 °F 69% 30.12 in 6.2 mi SE 2.3 mph - N/A   Unknown
12:30 PM 77.0 °F 62.6 °F 61% 30.12 in 6.2 mi Calm Calm - N/A   Unknown
1:00 PM 77.0 °F 60.8 °F 57% 30.12 in 6.2 mi South 3.5 mph - N/A   Overcast
1:30 PM 77.0 °F 60.8 °F 57% 30.12 in 6.2 mi NNW 3.5 mph - N/A   Mostly Cloudy
2:00 PM 77.0 °F 60.8 °F 57% 30.09 in 6.2 mi North 2.3 mph - N/A   Scattered Clouds
2:30 PM 78.8 °F 62.6 °F 57% 30.09 in 6.2 mi Calm Calm - N/A   Scattered Clouds
3:00 PM 78.8 °F 64.4 °F 61% 30.09 in 6.2 mi NE 1.2 mph - N/A   Scattered Clouds
3:30 PM 77.0 °F 62.6 °F 61% 30.09 in 6.2 mi NNE 1.2 mph - N/A   Unknown
4:00 PM 77.0 °F 62.6 °F 61% 30.09 in 6.2 mi NE 3.5 mph - N/A   Scattered Clouds
4:30 PM 77.0 °F 66.2 °F 69% 30.09 in 6.2 mi East 9.2 mph - N/A   Mostly Cloudy
5:00 PM 77.0 °F 66.2 °F 69% 30.09 in 6.2 mi ESE 9.2 mph - N/A   Unknown
5:30 PM 75.2 °F 64.4 °F 69% 30.09 in 6.2 mi East 8.1 mph - N/A   Unknown
6:00 PM 75.2 °F 64.4 °F 69% 30.09 in 6.2 mi East 6.9 mph - N/A   Unknown
6:30 PM 75.2 °F 68.0 °F 78% 30.09 in 6.2 mi East 8.1 mph - N/A   Scattered Clouds
7:00 PM 73.4 °F 68.0 °F 83% 30.12 in 6.2 mi ESE 8.1 mph - N/A   Unknown
7:30 PM 73.4 °F 68.0 °F 83% 30.12 in 6.2 mi SE 5.8 mph - N/A   Scattered Clouds
8:00 PM 71.6 °F 68.0 °F 88% 30.15 in 6.2 mi SE 2.3 mph - N/A   Scattered Clouds
8:30 PM 71.6 °F 68.0 °F 88% 30.15 in 6.2 mi SE 5.8 mph - N/A   Unknown
9:00 PM 71.6 °F 68.0 °F 88% 30.15 in 6.2 mi SSE 1.2 mph - N/A   Unknown
9:30 PM 69.8 °F 68.0 °F 94% 30.15 in 6.2 mi Calm Calm - N/A   Unknown
10:00 PM 69.8 °F 68.0 °F 94% 30.18 in 6.2 mi Calm Calm - N/A   Unknown
10:30 PM 69.8 °F 69.8 °F 100% 30.18 in 6.2 mi Calm Calm - N/A   Unknown
11:00 PM 69.8 °F 69.8 °F 100% 30.18 in 6.2 mi Calm Calm - N/A   Unknown
11:30 PM 69.8 °F 69.8 °F 100% 30.18 in 6.2 mi Calm Calm - N/A   Mostly Cloudy